Location: Aciu?a
(46.2833°N, 22.4500°E)
Time: 13:40:59
(UTC+00:00)

Meteor 1-4 Rocket - Pass Details

Date: 25 October 2021
Orbit: 447 x 496 km, 81.2° (Epoch: 06 December)

Event Time Altitude Azimuth Distance (km) Brightness Sun altitude
Rises 16:27:26 0° 174° (S) 2,463 6.2 -11.1°
Reaches altitude 10° 16:29:34 10° 167° (SSE) 1,588 5.1 -11.5°
Maximum altitude 16:32:51 41° 96° (E) 671 2.8 -12.1°
Drops below altitude 10° 16:36:07 10° 25° (NNE) 1,587 4.9 -12.6°
Sets 16:38:15 0° 18° (NNE) 2,462 5.9 -13.0°
